WetterOnline ( https://www.wetteronline.de )

Wetter aktuell Glottertal

Aktuelles Wetter: Freiburg/Flugplatz (236m)

6-stündlich | Neueste Meldungen
Ortszeit Temperatur Wetter
Mo, 14.10. 20:00 17.7° C wolkenlos
Mo, 14.10. 14:00 23.4° C wolkenlos
Mo, 14.10. 8:00 13.0° C wolkenlos
Mo, 14.10. 2:00 13.7° C wolkenlos
So, 13.10. 20:00 19.3° C wolkenlos
So, 13.10. 14:00 26.5° C leicht bewölkt
So, 13.10. 8:00 13.7° C fast wolkenlos
So, 13.10. 2:00 13.8° C bedeckt
Ortszeit Temperatur Wetter
Mo, 14.10. 22:00 15.4° C wolkig
Mo, 14.10. 21:50 15.4° C wolkig
Mo, 14.10. 21:40 14.3° C wolkig
Mo, 14.10. 21:30 15.2° C leicht bewölkt
Mo, 14.10. 21:20 15.2° C leicht bewölkt
Mo, 14.10. 21:10 15.0° C fast wolkenlos
Mo, 14.10. 21:00 16.3° C fast wolkenlos
Mo, 14.10. 20:30 17.1° C wolkenlos
Mo, 14.10. 20:00 17.7° C wolkenlos
Mo, 14.10. 19:30 18.7° C wolkenlos
Mo, 14.10. 19:00 18.9° C wolkenlos
Ortszeit Relative Feuchte Sichtweite
Mo, 14.10. 20:00 81% 30 km
Mo, 14.10. 14:00 50% 30 km
Mo, 14.10. 8:00 84% 30 km
Mo, 14.10. 2:00 88% 35 km
So, 13.10. 20:00 73% 40 km
So, 13.10. 14:00 41% 45 km
So, 13.10. 8:00 87% 30 km
So, 13.10. 2:00 95% 17 km
Ortszeit Relative Feuchte Sichtweite
Mo, 14.10. 22:00 87% 30 km
Mo, 14.10. 21:50 87% -
Mo, 14.10. 21:40 89% -
Mo, 14.10. 21:30 92% 27 km
Mo, 14.10. 21:20 92% -
Mo, 14.10. 21:10 89% -
Mo, 14.10. 21:00 85% 30 km
Mo, 14.10. 20:30 83% 30 km
Mo, 14.10. 20:00 81% 30 km
Mo, 14.10. 19:30 79% 27 km
Mo, 14.10. 19:00 82% 35 km
Ortszeit Niederschlagsmenge Niederschlagsart
Mo, 14.10. 20:00 0.0 l/m2 in 12 Std. -
Mo, 14.10. 14:00 0.0 l/m2 in 6 Std. -
Mo, 14.10. 8:00 0.0 l/m2 in 12 Std. -
Mo, 14.10. 2:00 0.0 l/m2 in 6 Std. -
So, 13.10. 20:00 0.0 l/m2 in 12 Std. -
So, 13.10. 14:00 0.0 l/m2 in 6 Std. -
So, 13.10. 8:00 0.1 l/m2 in 12 Std. Regen
So, 13.10. 2:00 0.0 l/m2 in 6 Std. -
Ortszeit Niederschlagsmenge Niederschlagsart
Mo, 14.10. 22:00 0.0 l/m2 in 1 Std. -
Mo, 14.10. 21:50 keine Meldung -
Mo, 14.10. 21:40 keine Meldung -
Mo, 14.10. 21:30 0.0 l/m2 in 1 Std. -
Mo, 14.10. 21:20 keine Meldung -
Mo, 14.10. 21:10 keine Meldung -
Mo, 14.10. 21:00 0.0 l/m2 in 1 Std. -
Mo, 14.10. 20:30 0.0 l/m2 in 1 Std. -
Mo, 14.10. 20:00 0.0 l/m2 in 1 Std. -
Mo, 14.10. 19:30 0.0 l/m2 in 1 Std. -
Mo, 14.10. 19:00 0.0 l/m2 in 1 Std. -
Ortszeit Stärke Spitze Richtung
km/h Bft. km/h Grad Sektor
Mo, 14.10. 20:00 4 1 14 70° O
Mo, 14.10. 14:00 4 1 14 250° W
Mo, 14.10. 8:00 4 1 22 10° N
Mo, 14.10. 2:00 4 1 11 220° SW
So, 13.10. 20:00 4 1 29 120° SO
So, 13.10. 14:00 13 3 26 240° SW
So, 13.10. 8:00 4 1 18 30° NO
So, 13.10. 2:00 0 0 11 - -
Ortszeit Stärke Spitze Richtung
km/h Bft. km/h Grad Sektor
Mo, 14.10. 22:00 4 1 11 270° W
Mo, 14.10. 21:50 4 1 - 270° W
Mo, 14.10. 21:40 6 1 - 300° NW
Mo, 14.10. 21:30 4 1 7 40° NO
Mo, 14.10. 21:20 4 1 - 40° NO
Mo, 14.10. 21:10 7 2 - 30° NO
Mo, 14.10. 21:00 2 1 9 340° N
Mo, 14.10. 20:30 6 1 9 70° O
Mo, 14.10. 20:00 4 1 11 70° O
Mo, 14.10. 19:30 4 1 11 240° SW
Mo, 14.10. 19:00 2 1 6 250° W
Ortszeit Untergrenze Bedeckung Gattung
total tief tief mittel hoch
Mo, 14.10. 20:00 - 0/8 0/8 - - -
Mo, 14.10. 14:00 - 0/8 0/8 - - -
Mo, 14.10. 8:00 - 0/8 0/8 - - -
Mo, 14.10. 2:00 - 0/8 0/8 - - -
So, 13.10. 20:00 - 0/8 0/8 - - -
So, 13.10. 14:00 4200 m 2/8 2/8 - - -
So, 13.10. 8:00 4800 m 1/8 1/8 - - -
So, 13.10. 2:00 3900 m 8/8 8/8 - - -
Ortszeit Bedeckungsgrad in Achtel und Wolkenuntergrenze
Mo, 14.10. 22:00 6(8100m) 8(10500m) 8(10500m)
Mo, 14.10. 21:50 6(8100m) 8(10500m) 8(10500m)
Mo, 14.10. 21:40 6(8100m) 8(10500m) 8(10500m)
Mo, 14.10. 21:30 3(8100m) 5(10500m)
Mo, 14.10. 21:20 3(8100m) 5(10500m)
Mo, 14.10. 21:10 1(8100m) 1(10500m)
Mo, 14.10. 21:00 1(8700m)
Mo, 14.10. 20:30 keine Wolken
Mo, 14.10. 20:00 keine Wolken
Mo, 14.10. 19:30 keine Wolken
Mo, 14.10. 19:00 keine Wolken
Ortszeit Luftdruck NN (hPa) Tendenz (hPa in 3 Std.)
Mo, 14.10. 20:00 1010 - 0,6
Mo, 14.10. 14:00 1013 - 2,0
Mo, 14.10. 8:00 1016 - 0,6
Mo, 14.10. 2:00 1016 + 0,5
So, 13.10. 20:00 1014 + 0,7
So, 13.10. 14:00 1014 - 0,6
So, 13.10. 8:00 1015 - 0,7
So, 13.10. 2:00 1016 + 0,3
Ortszeit Luftdruck NN (hPa) Tendenz (hPa in 3 Std.)
Mo, 14.10. 22:00 1011 + 1,2
Mo, 14.10. 21:50 1011 keine Meldung
Mo, 14.10. 21:40 1011 keine Meldung
Mo, 14.10. 21:30 1011 + 0,5
Mo, 14.10. 21:20 1011 keine Meldung
Mo, 14.10. 21:10 1011 keine Meldung
Mo, 14.10. 21:00 1010 + 0,3
Mo, 14.10. 20:30 1010 0,0
Mo, 14.10. 20:00 1010 - 0,6
Mo, 14.10. 19:30 1009 - 1,4
Mo, 14.10. 19:00 1010 - 1,6
Ortszeit Schneehöhe (cm)
Mo, 14.10. 20:00 0
Mo, 14.10. 14:00 0
Mo, 14.10. 8:00 0
Mo, 14.10. 2:00 0
So, 13.10. 20:00 0
So, 13.10. 14:00 0
So, 13.10. 8:00 0
So, 13.10. 2:00 0
Ortszeit Schneehöhe (cm)
Mo, 14.10. 22:00 0
Mo, 14.10. 21:50 0
Mo, 14.10. 21:40 0
Mo, 14.10. 21:30 0
Mo, 14.10. 21:20 0
Mo, 14.10. 21:10 0
Mo, 14.10. 21:00 0
Mo, 14.10. 20:30 0
Mo, 14.10. 20:00 0
Mo, 14.10. 19:30 0
Mo, 14.10. 19:00 0
Link zu dieser Seite / Seite empfehlen

Das Wetter in ...